User: anonymous   Login
Location: Ballingbuur
(53.0000°N, 5.7667°E)
Time: 21:23:09
(UTC+00:00)
Language:

Cosmos 1777 Rocket - Orbit

View from above orbital plane
View from above orbital plane
View from above satellite
View from above satellite

Ground track
Ground track

The orbit data is extracted from the following two-line orbital elements,

1 16953U 86070B   21055.44200313  .00000069  00000-0  31982-4 0  9997
2 16953  74.0130 311.9763 0013000 215.1802 144.8494 14.37409002805551
Epoch (UTC): 24 February 2021 10:36:29
Eccentricity: 0.0013000
inclination: 74.0130°
perigee height: 758 km
apogee height: 776 km
right ascension of ascending node: 311.9763°
argument of perigee: 215.1802°
revolutions per day: 14.37409002
mean anomaly at epoch: 144.8494°
orbit number at epoch: 80555

The dashed part of the orbit path shows where the satellite is in the earth's shadow,  

DLR